Location: Izdebno
(52.6670°N, 16.2170°E)
Time: 03:45:45
(UTC+02:00)

Transit 4A - Pass Details

Date: 29 February 2024
Orbit: 871 x 972 km, 66.8° (Epoch: 22 April)

Event Time Altitude Azimuth Distance (km) Brightness Sun altitude
Rises 03:46:15 0° 278° (W) 3,566 - -27.1°
Reaches altitude 10° 03:49:21 10° 292° (WNW) 2,606 - -26.7°
Exits shadow 03:52:38 21° 323° (NW) 1,900 9.4 -26.2°
Maximum altitude 03:54:07 24° 345° (NNW) 1,802 9.4 -26.0°
Drops below altitude 10° 03:58:48 10° 37° (NE) 2,560 11.0 -25.4°
Sets 04:01:49 0° 52° (NE) 3,489 12.1 -24.9°
